STARLINK-32571, 62055

Orbit data source: Space-Track

STARLINK-32571, 62055 is a payload satellite owned by SpaceX/Seattle (US) in LEO that was launched on Thu, 21 Nov 2024 UTC via an FALCON 9 launch vehicle from the Air Force Eastern Test Range (AFETR). Payload-class satellites include a variety of spacecraft equipped with specific instruments for various scientific and technological missions. These include communications satellites like Starlink; space stations such as the ISS; scientific satellites like the Hubble; Earth observation satellites from companies like Planet Labs, Umbra, and HawkEye 360; GPS; miniature CubeSats for education and research; and military/defense satellites.

Loading next visibility...
Identifier
62055, 2024-216Z
Orbit
LEO
Country
Flag of USUS
Related business
Manufacturer
SpaceX/Seattle
Mission
Operational Commercial Communications
Bus & Motor
STARLINK V2M, Unknown motor
Mass
730 kg wet, ~700 kg dry
Launch date (UTC)
2024-11-21 (2 years ago)
Launch vehicle
FALCON 9
Launch site
Air Force Eastern Test Range (AFETR)
Object type
Payload
Rocket body
Debris
Shape & HBR
Box + 2 Pan, 17.7 m
Radar Cross Section
33.884 m², Large (>1 m²)

Expand to show TLE details & history
Last TLE update: 8 hours ago

TLE from 8 hours ago
0 STARLINK-32571
1 62055U 24216Z   26248.25312165  .00002511  00000-0  10075-3 0  9995
2 62055  43.0021 321.7138 0001391 264.5001  95.5692 15.27577235101447
Epoch: 2026-09-05T06:04Z
TLE epoch observation values (Epoch: 2026-09-05T06:04:29.710Z)
Latitude
-0.00002°
Longitude
-113.77526°
Altitude
482.926 km
Speed
7.626 km/s
True Right ascension
21h 26m 51s
True Declination
0° 00' 00"
Sunlit
Object was in full shadow at epoch
Visualization orbit readout
Latitude
Unknown
Longitude
Unknown
Altitude
Unknown
Speed
Unknown
Apparent Right ascension
Unknown
Apparent Declination
Unknown
Sunlit
N/A
Visualization observer readout
Local Sidereal Time
06:26:15
Azimuth
Unknown
Elevation
Unknown
Doppler factor
Unknown
Orbital elements
Apogee altitude
485.957 km
Perigee altitude
484.048 km
Semi-major axis
6,863.139 km
Eccentricity
0.00014
Inclination
43.0021°
RAAN
321.7138°
Arg. of periapsis
264.5001°
True anomaly
95.58506°
Mean anomaly
95.5692°
Eccentric anomaly
95.57713°
Mean motion
3.81732 °/min
Orbital period
94.31 mins
BSTAR
0.00010075
Loading maneuver chart data...
Computing Atmospheric mass density...
Loading historical data...
Loading historical data...
Loading historical data...
Loading historical data...
Loading historical data...
Loading historical data...
Loading historical data...

Documentation

Showing up to 5 results
|